Location: Edemissen
(51.7689°N, 9.8634°E)
Time: 23:01:39
(UTC+00:00)

STARLINK-5239 - Visible Passes

Search period start: 18 November 2025 00:00
Search period end: 28 November 2025 00:00
Orbit: 538 x 541 km, 53.2° (Epoch: 17 November)

Date Brightness Start Highest point End Pass type
(mag) Time Alt. Az. Time Alt. Az. Time Alt. Az.
23 Nov ? 06:07:37 10° SSW 06:11:10 29° SE 06:14:44 10° E visible
24 Nov ? 05:58:40 10° SSW 06:02:24 34° SE 06:06:07 10° E visible
25 Nov ? 05:49:47 10° SW 05:53:37 40° SSE 05:57:29 10° ENE visible
26 Nov ? 04:04:36 10° SSE 04:06:19 12° SE 04:08:01 10° ESE visible
26 Nov ? 05:40:57 10° SW 05:44:52 47° SSE 05:48:49 10° ENE visible
27 Nov ? 03:55:43 12° SSE 03:57:28 15° SE 03:59:51 10° E visible
27 Nov ? 05:32:09 10° SW 05:36:08 55° SSE 05:40:08 10° ENE visible
